STARLINK-33891, 63827

Orbit data source: Space-Track

STARLINK-33891, 63827 is a payload satellite owned by SpaceX/Seattle (US) in LEO that was launched on Sun, 04 May 2025 UTC via an FALCON 9 launch vehicle from the Air Force Eastern Test Range (AFETR). Payload-class satellites include a variety of spacecraft equipped with specific instruments for various scientific and technological missions. These include communications satellites like Starlink; space stations such as the ISS; scientific satellites like the Hubble; Earth observation satellites from companies like Planet Labs, Umbra, and HawkEye 360; GPS; miniature CubeSats for education and research; and military/defense satellites.

Loading next visibility...
Identifier
63827, 2025-092Z
Orbit
LEO
Country
Flag of USUS
Related business
Manufacturer
SpaceX/Seattle
Mission
Operational Commercial Communications
Bus & Motor
STARLINK V2MO, Unknown motor
Mass
575 kg wet, ~530 kg dry
Launch date (UTC)
2025-05-04 (1 year ago)
Launch vehicle
FALCON 9
Launch site
Air Force Eastern Test Range (AFETR)
Object type
Payload
Rocket body
Debris
Shape & HBR
Box + 1 Pan, 17.7 m
Radar Cross Section
41.120 m², Large (>1 m²)

Expand to show TLE details & history
Last TLE update: 20 hours ago

TLE from 20 hours ago
0 STARLINK-33891
1 63827U 25092Z   26267.02959091  .00012707  00000-0  47040-3 0  9997
2 63827  43.0023 132.8096 0001675 264.0713  95.9948 15.27586671 78884
Epoch: 2026-09-24T00:42Z
TLE epoch observation values (Epoch: 2026-09-24T00:42:36.654Z)
Latitude
-0.00001°
Longitude
119.28464°
Altitude
482.925 km
Speed
7.626 km/s
True Right ascension
08h 51m 14s
True Declination
0° 00' 00"
Sunlit
Object was in daylight at epoch
Visualization orbit readout
Latitude
Unknown
Longitude
Unknown
Altitude
Unknown
Speed
Unknown
Apparent Right ascension
Unknown
Apparent Declination
Unknown
Sunlit
N/A
Visualization observer readout
Local Sidereal Time
14:18:27
Azimuth
Unknown
Elevation
Unknown
Doppler factor
Unknown
Orbital elements
Apogee altitude
486.123 km
Perigee altitude
483.824 km
Semi-major axis
6,863.111 km
Eccentricity
0.00017
Inclination
43.0023°
RAAN
132.8096°
Arg. of periapsis
264.0713°
True anomaly
96.01389°
Mean anomaly
95.9948°
Eccentric anomaly
96.00434°
Mean motion
3.81735 °/min
Orbital period
94.31 mins
BSTAR
0.0004704
Loading maneuver chart data...
Computing Atmospheric mass density...
Loading historical data...
Loading historical data...
Loading historical data...
Loading historical data...
Loading historical data...
Loading historical data...
Loading historical data...

Documentation

Showing up to 5 results
|